Location: Vancouver
(49.2500°N, 123.1330°W)
Time: 19:00:48
(UTC-07:00)

Daily predictions for brighter satellites

Satellite Brightness Start Highest point End
(mag) Time Altitude Azimuth Time Altitude Azimuth Time Altitude Azimuth
ATLAS 3B R/B 3.0 19:22:34 10° SW 19:30:12 88° SE 19:37:35 10° NE
ATLAS CENTAUR R/B 4.5 19:28:52 10° S 19:34:15 34° ESE 19:48:07 10° NE
CZ-4B DEB 4.3 19:32:59 10° ESE 19:35:28 20° ENE 19:37:57 10° NNE
Cosmos 921 Rocket 4.1 19:31:53 10° NNW 19:35:58 48° WSW 19:40:00 10° S
Cosmos 1953 3.9 19:34:01 10° ESE 19:36:19 15° E 19:38:38 10° NE
Cosmos 2237 Rocket 2.3 19:31:56 10° SSW 19:37:32 62° ESE 19:43:08 10° NE
Cosmos 1867 3.6 19:32:26 10° SSW 19:37:54 79° SE 19:43:25 10° NE
TIMED 4.5 19:38:39 10° NNW 19:43:03 81° ENE 19:47:26 10° SSE
NOSS 3-2 (A) 4.3 19:39:04 10° S 19:44:14 29° ESE 19:49:46 10° ENE
Cosmos 2233 Rocket 4.1 19:39:21 10° S 19:45:39 84° E 19:52:02 10° N
USA 238 DEB 3.8 19:41:15 10° SSW 19:48:12 66° SE 19:55:10 10° NE
USA 238 3.8 19:41:21 10° SSW 19:48:18 65° SE 19:55:16 10° NE
Cosmos 1437 2.8 19:46:03 10° NNW 19:49:21 83° W 19:52:37 10° S
NOAA 12 4.2 19:45:17 10° SSE 19:50:33 84° WSW 19:55:53 10° NNW
SKYMED 2 4.1 19:46:14 10° N 19:50:34 65° WNW 19:54:52 10° SSW
Cosmos 1980 3.7 19:44:56 10° SSW 19:50:34 82° ESE 19:56:17 10° NNE
Cosmos 1076 Rocket 3.8 19:47:14 10° N 19:51:25 48° ENE 19:55:37 10° SSE
ATLAS 5 CENTAUR R/B 3.3 19:50:09 10° SSE 19:53:07 16° ESE 19:56:12 10° ENE
Cosmos 292 Rocket 3.7 19:48:32 10° SSW 19:53:17 71° ESE 19:58:08 10° NNE
COSMOS 2455 3.5 19:48:42 10° SW 19:54:39 61° NW 20:00:40 10° NNE
Cosmos 2056 Rocket 3.7 19:49:22 10° NNW 19:54:50 82° WSW 20:00:16 10° SSE
SL-16 R/B 2.6 19:50:16 10° S 19:55:31 40° ESE 20:00:48 10° NE
Cosmos-2242 4.1 19:54:58 10° SE 19:58:31 25° E 20:02:05 10° NNE
Spot 2 Rocket 3.5 19:53:40 10° SSE 19:58:42 82° ENE 20:03:46 10° NNW
Cosmos 1805 4.3 19:55:43 10° SE 19:58:54 24° E 20:02:08 10° NE
ERBS 4.3 19:57:33 10° NW 20:00:23 22° N 20:03:13 10° NE
Cosmos 1408 Rocket 3.7 19:56:19 10° N 20:00:38 52° ENE 20:04:53 10° SSE
Cosmos 1607 3.9 19:55:36 10° SSW 20:01:46 82° SE 20:07:57 10° NE
Resurs 01 Rocket 1.6 19:58:11 10° SSE 20:02:39 86° ENE 20:07:08 10° NNW
Spot 1 4.4 19:58:00 10° SSE 20:02:48 80° WSW 20:07:20 10° NNW
H-2A R/B 3.4 19:59:13 10° SE 20:02:49 36° ENE 20:06:24 10° N
Okean 3 Rocket 4.0 19:58:45 10° NNW 20:03:17 71° W 20:07:48 10° S
FREGAT/IRIS 3.5 20:00:48 10° S 20:03:51 55° W 20:06:55 10° NNW
Helios 1B rocket 2.5 20:00:53 10° NNE 20:04:55 52° E 20:08:56 10° S
Timation 1 Rocket 4.3 19:59:05 10° NNW 20:05:06 85° ENE 20:11:05 10° SSE
Aureole 2 Rocket 3.3 20:01:49 10° S 20:06:00 44° ESE 20:10:06 10° NE
Resurs 1-3 3.5 20:04:27 10° SSE 20:08:50 78° ENE 20:13:14 10° NNW
Meteor 1-28 Rocket 3.3 20:05:08 10° N 20:08:52 79° WNW 20:12:36 10° SSW
Meteor 1-22 Rocket 4.0 20:04:15 10° S 20:09:35 76° E 20:14:53 10° NNE
SJ-6B 4.1 20:05:51 10° S 20:09:39 44° W 20:13:34 10° NNW
Envisat 4.3 20:07:14 15° E 20:09:51 21° ENE 20:13:36 10° N
NOSS 3-3 (A) 4.5 20:02:51 10° NW 20:10:11 89° WSW 20:18:06 10° SE
NOSS 3-3 (C) 4.5 20:02:57 10° NW 20:10:18 90° SW 20:18:12 10° SE
ALOS 2.3 20:07:31 10° SSE 20:12:07 61° ENE 20:16:44 10° N
Cosmos 1378 3.4 20:10:14 10° NNW 20:13:58 70° W 20:17:40 10° S
ASTEX 1 3.9 20:11:32 10° NNE 20:16:07 37° E 20:20:38 10° SSE
Cosmos 1758 3.8 20:12:20 10° SSE 20:16:07 38° E 20:19:56 10° NNE
Cosmos 2278 Rocket 4.0 20:11:56 10° NW 20:16:56 33° WSW 20:21:54 10° SSW
Meteor 1-24 Rocket 4.3 20:12:20 10° NNW 20:18:00 61° W 20:23:26 10° S
Cosmos 1470 4.5 20:19:26 16° ENE 20:19:26 16° ENE 20:21:05 10° NE
Cosmos 2219 Rocket 3.2 20:13:59 10° SW 20:19:24 48° NW 20:24:55 10° NNE
Cosmos 2297 4.3 20:14:11 10° NW 20:19:46 59° WSW 20:25:18 10° S
NOSS 3-2 (C) 3.9 20:14:44 10° S 20:20:23 40° ESE 20:26:30 10° NE
Meteor 1-29 2.9 20:17:39 10° NNE 20:21:10 65° ESE 20:24:39 10° S
Cosmos 1544 3.8 20:23:51 15° SSE 20:26:20 31° E 20:29:41 10° NNE
Cosmos 1743 Rocket 3.8 20:22:18 10° N 20:26:40 48° ENE 20:30:01 16° SSE
ATLAS CENTAUR R/B 3.5 20:26:47 10° WNW 20:30:18 25° WSW 20:33:35 10° S
GP-B 4.0 20:26:48 10° NNE 20:30:42 29° E 20:31:59 25° ESE
FENGYUN 3A 3.6 20:28:59 10° SSE 20:34:22 90° WSW 20:39:48 10° NNW
Nadezhda 4 Rocket 4.0 20:29:31 10° N 20:35:50 68° ENE 20:42:03 10° SSE
TELKOM 3 3.0 20:34:51 10° W 20:37:33 62° SSW 20:37:43 59° S
Cosmos 2369 Rocket 2.8 20:32:19 10° NNW 20:37:35 38° NE 20:40:09 25° E
Cosmos 1939 Rocket 3.8 20:37:24 27° E 20:38:01 28° ENE 20:41:28 10° N
Cosmos 1092 Rocket 4.1 20:33:45 10° N 20:39:54 55° ENE 20:44:44 16° SSE
USA 186 1.4 20:40:37 48° NNE 20:40:37 48° NNE 20:42:28 10° N
Cosmos 2058 4.5 20:38:54 10° NNE 20:41:28 19° ENE 20:41:28 19° ENE
Cosmos 1603 4.2 20:37:15 10° S 20:42:28 37° ESE 20:47:43 10° NE
CZ-4C R/B 2.8 20:43:50 10° WSW 20:49:18 60° NW 20:55:33 10° NE
Cosmos 2333 Rocket 3.7 20:45:47 10° WSW 20:51:11 39° NW 20:56:36 10° NNE
Cosmos 1452 Rocket 3.9 20:46:30 10° NNW 20:51:43 63° WSW 20:56:48 10° S
Cosmos 1943 Rocket 3.4 20:47:43 10° NNW 20:52:28 27° NE 20:54:04 23° ENE
SJ-11-01 4.4 20:50:56 32° SE 20:52:49 54° ENE 20:57:24 10° N
USA 215 3.2 20:46:55 10° ENE 20:53:30 85° SE 21:00:03 10° SW
Meteor 1-21 Rocket 4.3 20:49:09 10° NNW 20:54:45 75° W 21:00:16 10° S
SPOT 5 3.8 20:56:24 25° ENE 20:56:24 25° ENE 20:59:42 10° N
ERS-1 Rocket 3.1 20:54:27 33° SE 20:56:25 53° ENE 21:01:19 10° N
Cosmos 1674 2.6 20:52:50 10° N 20:56:44 70° E 20:57:47 45° SSE
Cosmos 1346 3.2 20:54:31 10° NNW 20:57:29 68° W 20:58:01 53° SSW
Cosmos 2026 Rocket 4.3 20:51:53 10° N 20:57:40 43° ENE 20:59:42 33° ESE
Cosmos 1634 Rocket 4.3 20:54:30 21° SSE 20:58:16 44° E 21:04:07 10° NNE
YAOGAN 11 4.1 21:00:42 46° ESE 21:01:38 58° ENE 21:05:53 10° N
SeaSat 1 2.4 20:57:54 10° NE 21:02:49 60° ESE 21:07:41 10° SSW
Cosmos 2034 Rocket 4.3 21:02:21 10° SSW 21:08:35 69° W 21:14:57 10° N
H-2A R/B 2.9 21:11:48 35° NE 21:11:48 35° NE 21:15:35 10° N
Cosmos 468 4.4 21:06:17 10° SSW 21:11:30 70° ESE 21:16:44 10° NNE
Cosmos 1953 3.1 21:08:27 10° SSW 21:12:21 52° WNW 21:16:16 10° N
Exosat Rocket 4.4 21:06:38 10° NNW 21:12:38 61° ENE 21:16:01 35° SE
Cosmos 1420 Rocket 4.3 21:11:25 10° NNW 21:16:41 67° WSW 21:19:25 29° S
Cosmos 2195 Rocket 4.4 21:12:41 10° N 21:19:00 69° ENE 21:21:33 38° SSE
ATLAS 3B R/B 4.2 21:14:55 10° W 21:21:47 37° NNW 21:28:24 10° NE
Cosmos 2237 Rocket 4.1 21:17:04 10° WSW 21:22:00 29° NW 21:26:57 10° NNE
Cosmos 1331 Rocket 4.4 21:18:24 10° NNW 21:23:32 46° ENE 21:23:52 45° ENE
Cosmos 839 Rocket 4.3 21:15:41 10° NW 21:23:58 82° NE 21:26:35 42° SE
Cosmos 1269 Rocket 3.8 21:25:55 10° SSW 21:31:12 79° ESE 21:36:30 10° NNE
UNK 4.5 21:08:30 10° W 21:31:15 88° S 21:33:31 46° ESE
NOSS 3-2 (A) 3.8 21:28:18 10° SW 21:34:31 71° NW 21:41:24 10° NE
H-2A R/B 3.6 21:36:05 21° NE 21:36:05 21° NE 21:38:54 10° N
ATLAS 5 CENTAUR R/B 1.8 21:32:04 10° SW 21:36:57 89° NW 21:39:49 28° NE
Cosmos 1500 Rocket 4.4 21:32:50 10° NNW 21:37:05 47° W 21:38:42 32° SW
ERBS 4.1 21:34:41 10° NW 21:37:05 29° N 21:37:05 29° N
Cosmos 1627 Rocket 4.4 21:31:49 10° N 21:38:01 90° N 21:40:12 44° S
Cosmos 1842 Rocket 3.7 21:37:13 50° SW 21:38:11 68° WNW 21:42:32 10° N
YAOGAN 6 4.5 21:41:05 24° N 21:41:05 24° N 21:42:43 10° N
SL-16 R/B 3.5 21:34:17 10° WSW 21:39:39 41° NW 21:45:03 10° NNE
Cosmos 1048 Rocket 3.8 21:38:21 42° SSW 21:40:11 81° ESE 21:45:28 10° NNE
Cosmos 724 4.2 21:35:55 10° SSW 21:41:53 84° SE 21:48:02 10° NE
Envisat 3.2 21:47:26 54° SSW 21:48:24 67° WSW 21:53:29 10° NNW
Cosmos 1470 3.9 21:54:48 41° NW 21:54:48 41° NW 21:58:04 10° N
Cosmos 2151 3.7 21:51:43 10° NNW 21:55:24 51° WNW 21:55:24 51° WNW
Meteor 2-20 4.3 21:50:55 10° N 21:57:07 73° E 21:57:17 73° E
SPOT 1/Viking Rocket 4.0 21:58:26 49° NNE 21:58:26 49° NNE 22:02:32 10° N
MetOp-A 4.0 22:00:49 85° NNW 22:00:49 85° NNW 22:06:03 10° NNW
ARGOS 3.5 22:01:55 54° NNE 22:01:55 54° NNE 22:06:29 10° N
BREEZE-M DEB (TANK) 4.5 21:40:07 10° WSW 22:02:34 84° SSE 22:04:11 57° E
NOAA 11 4.4 22:10:02 60° NNE 22:10:02 60° NNE 22:14:36 10° N
NOSS 3-2 (C) 4.1 22:04:57 10° WSW 22:11:06 56° NW 22:17:56 10° NE
Cosmos 1655 Rocket 4.2 22:05:47 10° NNW 22:11:58 65° W 22:13:11 53° SW
Terra 3.6 22:17:57 23° NNE 22:17:57 23° NNE 22:20:02 10° N
CENTAUR R/B 4.4 22:22:12 18° NE 22:22:12 18° NE 22:23:53 10° NE
Cosmos 2369 Rocket 3.0 22:16:22 10° NW 22:21:41 43° WSW 22:21:57 43° WSW
Cosmos 2279 Rocket 4.0 22:25:31 76° W 22:25:34 76° W 22:31:48 10° N
SPOT 5 4.4 22:35:39 29° NW 22:35:39 29° NW 22:38:13 10° NNW
USA 215 3.9 22:33:18 31° NE 22:36:18 52° NNW 22:42:35 10° W
Cosmos 1943 Rocket 2.8 22:31:07 10° NNW 22:35:36 54° NW 22:35:36 54° NW
CZ-4C R/B 4.3 22:34:13 10° WNW 22:39:09 26° NNW 22:44:38 10° NE
Cosmos 2266 Rocket 4.3 22:33:18 10° N 22:38:40 64° N 22:38:40 64° N
SeaSat 1 4.3 22:35:53 10° NNE 22:40:04 28° NW 22:44:14 10° WSW
H-2A R/B 4.2 22:48:57 24° WNW 22:48:57 24° WNW 22:51:27 10° NW
H-2A R/B 3.8 23:16:43 27° NNW 23:16:43 27° NNW 23:19:06 10° NNW
ATLAS 5 CENTAUR R/B 3.9 23:18:03 10° W 23:27:42 - NE 23:21:33 26° NW
Cosmos 1980 Rocket 4.3 23:50:04 10° NNW 23:52:41 21° NNE 23:52:41 21° NNE
